Time,TemperatureF,DewpointF,PressureIn,WindDirection,WindDirectionDegrees,WindSpeedMPH,WindSpeedGustMPH,Humidity,HourlyPrecipIn,Conditions,Clouds,dailyrainin,SoftwareType,DateUTC
2013-03-03 00:12:00,28.8,19.0,29.86,NW,308,6.0,11.0,66,0.00,,,0.00,weatherlink.com 1.10,2013-03-03 05:12:00,
2013-03-03 00:27:00,28.7,19.0,29.86,WNW,303,4.0,11.0,66,0.00,,,0.00,weatherlink.com 1.10,2013-03-03 05:27:00,
2013-03-03 00:42:00,28.8,19.0,29.86,WNW,288,8.0,12.0,66,0.00,,,0.00,weatherlink.com 1.10,2013-03-03 05:42:00,
2013-03-03 00:57:00,28.8,19.0,29.86,WSW,249,4.0,9.0,66,0.00,,,0.00,weatherlink.com 1.10,2013-03-03 05:57:00,
2013-03-03 01:27:00,28.9,19.0,29.86,NW,323,4.0,10.0,66,0.00,,,0.00,weatherlink.com 1.10,2013-03-03 06:27:00,
2013-03-03 01:42:00,28.9,19.0,29.86,WNW,287,4.0,9.0,66,0.00,,,0.00,weatherlink.com 1.10,2013-03-03 06:42:00,
2013-03-03 01:57:00,28.8,19.0,29.86,WSW,256,4.0,7.0,66,0.00,,,0.00,weatherlink.com 1.10,2013-03-03 06:57:00,
2013-03-03 02:12:00,28.9,19.0,29.85,WNW,290,4.0,11.0,67,0.00,,,0.00,weatherlink.com 1.10,2013-03-03 07:12:00,
2013-03-03 02:27:00,28.8,19.0,29.85,West,280,7.0,9.0,67,0.00,,,0.00,weatherlink.com 1.10,2013-03-03 07:27:00,
2013-03-03 02:42:00,28.8,19.0,29.84,SW,223,7.0,11.0,68,0.00,,,0.00,weatherlink.com 1.10,2013-03-03 07:42:00,
2013-03-03 02:58:00,28.6,20.0,29.84,NW,312,6.0,9.0,69,0.00,,,0.00,weatherlink.com 1.10,2013-03-03 07:58:00,
2013-03-03 03:13:00,28.4,19.0,29.84,WNW,286,6.0,11.0,69,0.00,,,0.00,weatherlink.com 1.10,2013-03-03 08:13:00,
2013-03-03 03:28:00,28.4,20.0,29.84,NNW,338,3.0,11.0,70,0.00,,,0.00,weatherlink.com 1.10,2013-03-03 08:28:00,
2013-03-03 03:43:00,28.3,20.0,29.83,NW,317,5.0,11.0,70,0.00,,,0.00,weatherlink.com 1.10,2013-03-03 08:43:00,
2013-03-03 03:58:00,28.3,20.0,29.84,West,260,6.0,8.0,70,0.00,,,0.00,weatherlink.com 1.10,2013-03-03 08:58:00,
2013-03-03 04:13:00,28.4,20.0,29.84,West,273,3.0,5.0,70,0.00,,,0.00,weatherlink.com 1.10,2013-03-03 09:13:00,
2013-03-03 04:28:00,28.3,20.0,29.84,WNW,286,4.0,8.0,70,0.00,,,0.00,weatherlink.com 1.10,2013-03-03 09:28:00,
2013-03-03 04:43:00,28.3,20.0,29.84,West,264,5.0,11.0,71,0.00,,,0.00,weatherlink.com 1.10,2013-03-03 09:43:00,
2013-03-03 04:58:00,28.2,20.0,29.84,WNW,287,6.0,12.0,71,0.00,,,0.00,weatherlink.com 1.10,2013-03-03 09:58:00,
2013-03-03 05:13:00,28.2,20.0,29.84,SE,144,1.0,9.0,71,0.00,,,0.00,weatherlink.com 1.10,2013-03-03 10:13:00,
2013-03-03 05:28:00,28.1,20.0,29.85,West,277,2.0,9.0,73,0.00,,,0.00,weatherlink.com 1.10,2013-03-03 10:28:00,
2013-03-03 05:43:00,28.0,21.0,29.85,West,269,3.0,10.0,74,0.00,,,0.00,weatherlink.com 1.10,2013-03-03 10:43:00,
2013-03-03 05:58:00,27.8,21.0,29.85,West,263,4.0,7.0,75,0.00,,,0.00,weatherlink.com 1.10,2013-03-03 10:58:00,
2013-03-03 06:13:00,27.7,21.0,29.85,WNW,300,6.0,11.0,76,0.00,,,0.00,weatherlink.com 1.10,2013-03-03 11:13:00,
2013-03-03 06:28:00,27.6,21.0,29.85,WNW,290,3.0,6.0,77,0.00,,,0.00,weatherlink.com 1.10,2013-03-03 11:28:00,
2013-03-03 06:43:00,27.6,21.0,29.85,West,259,2.0,7.0,77,0.00,,,0.00,weatherlink.com 1.10,2013-03-03 11:43:00,
2013-03-03 06:58:00,27.6,21.0,29.85,WNW,286,1.0,3.0,77,0.00,,,0.00,weatherlink.com 1.10,2013-03-03 11:58:00,
2013-03-03 07:13:00,27.6,21.0,29.84,NNW,333,0.0,2.0,77,0.00,,,0.00,weatherlink.com 1.10,2013-03-03 12:13:00,
2013-03-03 07:28:00,28.0,21.0,29.85,WSW,255,3.0,7.0,74,0.00,,,0.00,weatherlink.com 1.10,2013-03-03 12:28:00,
2013-03-03 07:43:00,28.7,20.0,29.85,West,271,4.0,9.0,70,0.00,,,0.00,weatherlink.com 1.10,2013-03-03 12:43:00,
2013-03-03 07:58:00,29.2,20.0,29.85,WSW,256,2.0,9.0,68,0.00,,,0.00,weatherlink.com 1.10,2013-03-03 12:58:00,
2013-03-03 08:13:00,29.7,20.0,29.86,SE,135,1.0,8.0,66,0.00,,,0.00,weatherlink.com 1.10,2013-03-03 13:13:00,
2013-03-03 08:28:00,30.0,18.0,29.86,NNW,340,6.0,14.0,61,0.00,,,0.00,weatherlink.com 1.10,2013-03-03 13:28:00,
2013-03-03 08:43:00,30.0,18.0,29.86,WNW,290,8.0,18.0,60,0.00,,,0.00,weatherlink.com 1.10,2013-03-03 13:43:00,
2013-03-03 08:58:00,30.2,19.0,29.86,West,276,7.0,12.0,64,0.00,,,0.00,weatherlink.com 1.10,2013-03-03 13:58:00,
2013-03-03 09:13:00,30.1,20.0,29.86,West,262,11.0,14.0,65,0.00,,,0.00,weatherlink.com 1.10,2013-03-03 14:13:00,
2013-03-03 09:28:00,30.0,19.0,29.86,WNW,282,9.0,18.0,63,0.00,,,0.00,weatherlink.com 1.10,2013-03-03 14:28:00,
2013-03-03 09:43:00,30.6,18.0,29.86,NW,311,17.0,21.0,60,0.00,,,0.00,weatherlink.com 1.10,2013-03-03 14:43:00,
2013-03-03 09:58:00,30.9,18.0,29.86,WNW,295,7.0,21.0,59,0.00,,,0.00,weatherlink.com 1.10,2013-03-03 14:58:00,
2013-03-03 10:13:00,31.3,18.0,29.86,WSW,256,15.0,18.0,57,0.00,,,0.00,weatherlink.com 1.10,2013-03-03 15:13:00,
2013-03-03 10:28:00,31.3,18.0,29.86,NW,319,10.0,21.0,57,0.00,,,0.00,weatherlink.com 1.10,2013-03-03 15:28:00,
2013-03-03 10:43:00,31.7,17.0,29.85,West,268,14.0,23.0,56,0.00,,,0.00,weatherlink.com 1.10,2013-03-03 15:43:00,
2013-03-03 10:58:00,30.9,18.0,29.86,West,271,7.0,19.0,59,0.00,,,0.00,weatherlink.com 1.10,2013-03-03 15:58:00,
2013-03-03 11:13:00,31.0,18.0,29.86,WNW,293,15.0,23.0,59,0.00,,,0.00,weatherlink.com 1.10,2013-03-03 16:13:00,
2013-03-03 11:28:00,32.4,18.0,29.85,WNW,302,15.0,20.0,55,0.00,,,0.00,weatherlink.com 1.10,2013-03-03 16:28:00,
2013-03-03 11:43:00,33.3,18.0,29.85,WNW,287,17.0,26.0,54,0.00,,,0.00,weatherlink.com 1.10,2013-03-03 16:43:00,
2013-03-03 11:58:00,33.3,18.0,29.84,NW,319,6.0,24.0,54,0.00,,,0.00,weatherlink.com 1.10,2013-03-03 16:58:00,
2013-03-03 12:29:00,33.9,17.0,29.84,West,280,19.0,21.0,51,0.00,,,0.00,weatherlink.com 1.10,2013-03-03 17:29:00,
2013-03-03 12:44:00,33.0,17.0,29.83,WSW,255,6.0,21.0,53,0.00,,,0.00,weatherlink.com 1.10,2013-03-03 17:44:00,
2013-03-03 12:59:00,33.8,17.0,29.83,South,173,4.0,24.0,51,0.00,,,0.00,weatherlink.com 1.10,2013-03-03 17:59:00,
2013-03-03 13:14:00,34.2,17.0,29.83,WSW,241,11.0,19.0,50,0.00,,,0.00,weatherlink.com 1.10,2013-03-03 18:14:00,
2013-03-03 13:29:00,33.9,17.0,29.82,WSW,257,10.0,19.0,50,0.00,,,0.00,weatherlink.com 1.10,2013-03-03 18:29:00,
2013-03-03 13:44:00,34.3,17.0,29.81,WSW,251,8.0,23.0,50,0.00,,,0.00,weatherlink.com 1.10,2013-03-03 18:44:00,
2013-03-03 13:59:00,35.2,18.0,29.81,SSE,164,4.0,16.0,50,0.00,,,0.00,weatherlink.com 1.10,2013-03-03 18:59:00,
2013-03-03 14:14:00,34.8,17.0,29.82,WSW,242,8.0,24.0,49,0.00,,,0.00,weatherlink.com 1.10,2013-03-03 19:14:00,
2013-03-03 14:29:00,35.0,18.0,29.81,WSW,240,4.0,17.0,50,0.00,,,0.00,weatherlink.com 1.10,2013-03-03 19:29:00,
2013-03-03 14:44:00,35.0,17.0,29.81,WNW,298,15.0,20.0,49,0.00,,,0.00,weatherlink.com 1.10,2013-03-03 19:44:00,
2013-03-03 14:59:00,34.9,18.0,29.81,West,278,10.0,16.0,50,0.00,,,0.00,weatherlink.com 1.10,2013-03-03 19:59:00,
2013-03-03 15:14:00,34.8,17.0,29.81,West,262,15.0,20.0,49,0.00,,,0.00,weatherlink.com 1.10,2013-03-03 20:14:00,
2013-03-03 15:29:00,35.2,18.0,29.81,WNW,297,13.0,19.0,49,0.00,,,0.00,weatherlink.com 1.10,2013-03-03 20:29:00,
2013-03-03 15:44:00,34.7,18.0,29.81,WNW,288,9.0,23.0,50,0.00,,,0.00,weatherlink.com 1.10,2013-03-03 20:44:00,
2013-03-03 15:59:00,34.2,17.0,29.82,WNW,289,17.0,24.0,50,0.00,,,0.00,weatherlink.com 1.10,2013-03-03 20:59:00,
2013-03-03 16:14:00,34.2,18.0,29.82,WSW,255,8.0,20.0,51,0.00,,,0.00,weatherlink.com 1.10,2013-03-03 21:14:00,
2013-03-03 16:29:00,34.0,17.0,29.82,North,354,7.0,22.0,51,0.00,,,0.00,weatherlink.com 1.10,2013-03-03 21:29:00,
2013-03-03 16:44:00,33.9,18.0,29.83,West,270,10.0,19.0,52,0.00,,,0.00,weatherlink.com 1.10,2013-03-03 21:44:00,
2013-03-03 16:59:00,33.4,17.0,29.83,WNW,290,9.0,25.0,52,0.00,,,0.00,weatherlink.com 1.10,2013-03-03 21:59:00,
2013-03-03 17:14:00,33.2,18.0,29.84,WSW,256,7.0,22.0,53,0.00,,,0.00,weatherlink.com 1.10,2013-03-03 22:14:00,
2013-03-03 17:29:00,32.8,17.0,29.84,West,268,10.0,19.0,53,0.00,,,0.00,weatherlink.com 1.10,2013-03-03 22:29:00,
2013-03-03 17:44:00,32.6,17.0,29.85,West,260,14.0,23.0,53,0.00,,,0.00,weatherlink.com 1.10,2013-03-03 22:44:00,
2013-03-03 17:59:00,32.4,17.0,29.86,WNW,297,12.0,18.0,53,0.00,,,0.00,weatherlink.com 1.10,2013-03-03 22:59:00,
2013-03-03 18:14:00,32.1,17.0,29.86,WNW,293,4.0,17.0,54,0.00,,,0.00,weatherlink.com 1.10,2013-03-03 23:14:00,
2013-03-03 18:29:00,31.9,17.0,29.86,WNW,294,12.0,24.0,54,0.00,,,0.00,weatherlink.com 1.10,2013-03-03 23:29:00,
2013-03-03 18:44:00,31.7,17.0,29.87,NNE,25,5.0,17.0,54,0.00,,,0.00,weatherlink.com 1.10,2013-03-03 23:44:00,
2013-03-03 18:59:00,31.6,17.0,29.88,WSW,240,7.0,17.0,54,0.00,,,0.00,weatherlink.com 1.10,2013-03-03 23:59:00,
2013-03-03 19:14:00,31.4,16.0,29.88,WNW,297,5.0,14.0,54,0.00,,,0.00,weatherlink.com 1.10,2013-03-04 00:14:00,
2013-03-03 19:29:00,31.3,16.0,29.89,West,271,9.0,23.0,54,0.00,,,0.00,weatherlink.com 1.10,2013-03-04 00:29:00,
2013-03-03 19:44:00,31.1,16.0,29.89,West,269,8.0,24.0,53,0.00,,,0.00,weatherlink.com 1.10,2013-03-04 00:44:00,
2013-03-03 19:59:00,30.9,16.0,29.89,West,277,5.0,20.0,55,0.00,,,0.00,weatherlink.com 1.10,2013-03-04 00:59:00,
2013-03-03 20:14:00,30.8,16.0,29.90,West,274,10.0,18.0,55,0.00,,,0.00,weatherlink.com 1.10,2013-03-04 01:14:00,
2013-03-03 20:29:00,30.6,16.0,29.90,West,278,6.0,18.0,56,0.00,,,0.00,weatherlink.com 1.10,2013-03-04 01:29:00,
2013-03-03 20:44:00,30.6,16.0,29.91,West,267,11.0,20.0,55,0.00,,,0.00,weatherlink.com 1.10,2013-03-04 01:44:00,
2013-03-03 20:59:00,30.5,16.0,29.90,NW,326,6.0,17.0,56,0.00,,,0.00,weatherlink.com 1.10,2013-03-04 01:59:00,
2013-03-03 21:14:00,30.5,17.0,29.91,WNW,291,9.0,15.0,57,0.00,,,0.00,weatherlink.com 1.10,2013-03-04 02:14:00,
2013-03-03 21:29:00,30.5,17.0,29.91,West,271,3.0,17.0,57,0.00,,,0.00,weatherlink.com 1.10,2013-03-04 02:29:00,
2013-03-03 21:44:00,30.5,17.0,29.91,WNW,297,7.0,13.0,57,0.00,,,0.00,weatherlink.com 1.10,2013-03-04 02:44:00,
2013-03-03 21:59:00,30.4,17.0,29.91,West,274,6.0,13.0,58,0.00,,,0.00,weatherlink.com 1.10,2013-03-04 02:59:00,
2013-03-03 22:14:00,30.2,17.0,29.91,WNW,298,11.0,19.0,59,0.00,,,0.00,weatherlink.com 1.10,2013-03-04 03:14:00,
2013-03-03 22:29:00,30.0,18.0,29.91,West,269,11.0,20.0,60,0.00,,,0.00,weatherlink.com 1.10,2013-03-04 03:29:00,
2013-03-03 22:44:00,29.9,17.0,29.91,West,263,10.0,21.0,60,0.00,,,0.00,weatherlink.com 1.10,2013-03-04 03:44:00,
2013-03-03 22:59:00,29.9,17.0,29.91,NW,325,5.0,16.0,60,0.00,,,0.00,weatherlink.com 1.10,2013-03-04 03:59:00,
2013-03-03 23:14:00,29.9,17.0,29.91,West,274,5.0,18.0,60,0.00,,,0.00,weatherlink.com 1.10,2013-03-04 04:14:00,
2013-03-03 23:29:00,29.8,17.0,29.91,West,274,12.0,19.0,60,0.00,,,0.00,weatherlink.com 1.10,2013-03-04 04:29:00,
2013-03-03 23:44:00,29.8,17.0,29.91,WNW,302,11.0,18.0,60,0.00,,,0.00,weatherlink.com 1.10,2013-03-04 04:44:00,
2013-03-03 23:59:00,29.7,18.0,29.92,West,280,4.0,17.0,61,0.00,,,0.00,weatherlink.com 1.10,2013-03-04 04:59:00,